Sexton Summit, OR

5:56 AM PDT on May 26, 2018 (GMT -0700)
Sexton Summit

Weather History for KSXT - April, 2014

Change the Weather History Date:

Saturday, April 26, 2014

  Actual Average Record
Temperature  
Mean Temperature 36 °F -  
Max Temperature 45 °F 53 °F 81 °F (2004)
Min Temperature 28 °F 35 °F 28 °F (1999)
Degree Days  
Heating Degree Days 29    
Moisture  
Dew Point 31 °F    
Average Humidity 89    
Maximum Humidity 100    
Minimum Humidity 55    
Precipitation  
Precipitation 0.00 in - - ()
Sea Level Pressure  
Sea Level Pressure 29.86 in    
Wind  
Wind Speed 6 mph (SSW)    
Max Wind Speed 17 mph    
Max Gust Speed 29 mph    
Visibility 6 miles    
Events Fog , Snow    
Averages and records for this station are not official NWS values.
T = Trace of Precipitation, MM = Missing Value Source: NWS Daily Summary

Daily Weather History Graph

Daily Weather History Graph

Search for Another Location

Airport or City:

Astronomy

Apr. 26, 2014 Rise Set
Actual Time 6:15 AM PDT 8:08 PM PDT
Civil Twilight 5:44 AM PDT 8:38 PM PDT
Nautical Twilight 5:07 AM PDT 9:15 PM PDT
Astronomical Twilight 4:27 AM PDT 9:55 PM PDT
Moon 4:46 AM PDT 5:39 PM PDT
Length of Visible Light 14h 53m
Length of Day
13h 53m
Waning Crescent, 7% of the Moon is Illuminated
Apr 26
Waning Crescent
Apr 28
New
May 6
First Quarter
May 14
Full
May 21
Last Quarter

Hourly Weather History & Observations

Time (PDT) Temp. Windchill Dew Point Humidity Pressure Visibility Wind Dir Wind Speed Gust Speed Precip Events Conditions
12:39 AM 32.0 °F - 32.0 °F 100% 29.83 in 0.5 mi Calm Calm - N/A Fog Fog
12:56 AM 32.0 °F 27.5 °F 32.0 °F 100% 29.86 in 0.2 mi NNW 4.6 mph - N/A Fog Fog
1:08 AM 32.0 °F 28.7 °F 32.0 °F 100% 29.84 in 0.5 mi Variable 3.5 mph - N/A Fog Fog
1:16 AM 32.0 °F 28.7 °F 32.0 °F 100% 29.84 in 0.2 mi NNW 3.5 mph - N/A Fog Fog
1:45 AM 30.9 °F 27.5 °F 30.9 °F 100% 29.84 in 0.5 mi North 3.5 mph - N/A Fog Light Freezing Fog
1:56 AM 30.9 °F - 30.9 °F 100% 29.89 in 0.2 mi Calm Calm - N/A Fog Light Freezing Fog
2:16 AM 30.9 °F - 30.9 °F 100% 29.84 in 0.8 mi Calm Calm - N/A   Mist
2:37 AM 30.0 °F 24.1 °F 28.9 °F 96% 29.84 in 1.0 mi North 5.8 mph - N/A   Mostly Cloudy
2:43 AM 30.0 °F 24.1 °F 28.9 °F 96% 29.83 in 2.0 mi North 5.8 mph - N/A   Mostly Cloudy
2:54 AM 30.2 °F 23.4 °F 28.4 °F 93% 29.83 in 10.0 mi North 6.9 mph - N/A   Partly Cloudy
2:56 AM 30.0 °F 23.2 °F 28.9 °F 96% 29.89 in 10.0 mi North 6.9 mph - N/A   Partly Cloudy
3:56 AM 30.0 °F - 28.0 °F 92% 29.89 in 10.0 mi Calm Calm - N/A   Partly Cloudy
4:56 AM 30.0 °F 24.1 °F 28.0 °F 92% 29.88 in 10.0 mi SSW 5.8 mph - N/A   Partly Cloudy
5:56 AM 28.9 °F 23.9 °F 27.0 °F 92% 29.88 in 10.0 mi SSW 4.6 mph - N/A   Clear
6:30 AM 30.0 °F 25.2 °F 28.0 °F 92% 29.83 in 10.0 mi South 4.6 mph - N/A   Mostly Cloudy
6:56 AM 30.0 °F 24.1 °F 28.0 °F 92% 29.89 in 10.0 mi South 5.8 mph - N/A   Overcast
7:32 AM 30.9 °F 27.5 °F 30.0 °F 96% 29.84 in 2.5 mi SSW 3.5 mph - N/A   Mostly Cloudy
7:36 AM 30.9 °F 25.2 °F 30.0 °F 96% 29.84 in 0.5 mi SSW 5.8 mph - N/A Fog Light Freezing Fog
7:56 AM 30.9 °F 26.2 °F 30.9 °F 100% 29.91 in 0.2 mi South 4.6 mph - N/A Fog Light Freezing Fog
8:03 AM 30.9 °F 26.2 °F 30.9 °F 100% 29.84 in 0.2 mi South 4.6 mph - N/A Fog Light Freezing Fog
8:13 AM 30.9 °F 25.2 °F 30.9 °F 100% 29.84 in 0.2 mi South 5.8 mph - N/A Fog Light Freezing Fog
8:56 AM 32.0 °F 25.6 °F 32.0 °F 100% 29.92 in 0.2 mi SSW 6.9 mph - N/A Fog Fog
9:42 AM 33.1 °F 26.9 °F 33.1 °F 100% 29.84 in 1.2 mi Variable 6.9 mph - N/A   Mostly Cloudy
9:49 AM 34.0 °F 28.0 °F 33.1 °F 96% 29.84 in 1.8 mi South 6.9 mph - N/A   Mostly Cloudy
9:56 AM 34.0 °F 28.0 °F 34.0 °F 100% 29.89 in 2.0 mi South 6.9 mph - N/A   Mostly Cloudy
9:59 AM 34.0 °F 27.2 °F 33.1 °F 96% 29.84 in 0.8 mi SSW 8.1 mph - N/A   Mist
10:09 AM 33.1 °F 26.9 °F 33.1 °F 100% 29.84 in 0.2 mi South 6.9 mph - N/A Fog Fog
10:29 AM 34.0 °F 27.2 °F 33.1 °F 96% 29.84 in 0.2 mi South 8.1 mph - N/A Fog Fog
10:54 AM 34.0 °F 28.8 °F 33.1 °F 96% 29.91 in 1.2 mi Variable 5.8 mph - N/A   Overcast
10:56 AM 34.0 °F 26.6 °F 33.1 °F 96% 29.85 in 3.0 mi South 9.2 mph - N/A   Overcast
11:12 AM 35.1 °F 29.3 °F 33.1 °F 92% 29.85 in 10.0 mi Variable 6.9 mph - N/A   Mostly Cloudy
11:19 AM 34.0 °F 28.8 °F 32.0 °F 92% 29.85 in 10.0 mi Variable 5.8 mph - N/A   Mostly Cloudy
11:40 AM 37.0 °F 32.4 °F 32.0 °F 82% 29.85 in 10.0 mi Variable 5.8 mph - N/A   Mostly Cloudy
11:48 AM 39.0 °F 34.8 °F 33.1 °F 79% 29.85 in 10.0 mi Variable 5.8 mph - N/A   Mostly Cloudy
11:54 AM 39.2 °F 35.0 °F 33.8 °F 81% 29.85 in 10.0 mi Variable 5.8 mph - N/A   Mostly Cloudy
11:56 AM 39.9 °F 33.9 °F 34.0 °F 79% 29.90 in 10.0 mi SSW 9.2 mph - N/A   Mostly Cloudy
12:06 PM 39.9 °F 36.7 °F 33.1 °F 77% 29.85 in 10.0 mi Variable 4.6 mph - N/A   Scattered Clouds
12:13 PM 39.9 °F 34.5 °F 33.1 °F 77% 29.85 in 10.0 mi SSW 8.1 mph - N/A   Mostly Cloudy
12:24 PM 39.9 °F 34.5 °F 33.1 °F 77% 29.85 in 10.0 mi South 8.1 mph - N/A   Mostly Cloudy
12:35 PM 39.0 °F 34.8 °F 32.0 °F 76% 29.85 in 10.0 mi Variable 5.8 mph - N/A   Overcast
12:56 PM 39.9 °F 36.7 °F 33.1 °F 77% 29.89 in 10.0 mi Variable 4.6 mph - N/A   Overcast
1:56 PM 39.9 °F 34.5 °F 30.9 °F 70% 29.89 in 10.0 mi SSW 8.1 mph 17.3 mph N/A   Overcast
2:56 PM 42.1 °F 38.4 °F 32.0 °F 67% 29.89 in 10.0 mi Variable 5.8 mph 17.3 mph 0.00 in   Overcast
3:12 PM 44.1 °F 37.7 °F 32.0 °F 63% 29.85 in 10.0 mi SW 12.7 mph 23.0 mph N/A   Overcast
3:56 PM 41.0 °F 33.1 °F 28.0 °F 60% 29.88 in 10.0 mi SSW 15.0 mph 25.3 mph N/A   Overcast
4:56 PM 39.9 °F 31.8 °F 25.0 °F 55% 29.87 in 10.0 mi SSW 15.0 mph 28.8 mph N/A   Overcast
5:56 PM 39.0 °F 31.0 °F 25.0 °F 57% 29.87 in 10.0 mi SSW 13.8 mph 25.3 mph N/A   Overcast
6:56 PM 37.0 °F 27.7 °F 26.1 °F 65% 29.85 in 10.0 mi SSW 16.1 mph 25.3 mph N/A   Overcast
7:56 PM 36.0 °F 27.1 °F 28.9 °F 76% 29.85 in 9.0 mi SSW 13.8 mph 23.0 mph 0.00 in Snow Light Snow
8:56 PM 35.1 °F 25.9 °F 30.9 °F 85% 29.86 in 10.0 mi SSW 13.8 mph 25.3 mph 0.00 in   Overcast
9:17 PM 34.0 °F 25.0 °F 32.0 °F 92% 29.80 in 10.0 mi South 12.7 mph 20.7 mph N/A   Overcast
9:56 PM 34.0 °F 25.0 °F 33.1 °F 96% 29.86 in 10.0 mi South 12.7 mph 21.9 mph N/A   Overcast
10:37 PM 33.1 °F 23.4 °F 33.1 °F 100% 29.80 in 1.5 mi South 13.8 mph 21.9 mph 0.00 in   Overcast
10:41 PM 33.1 °F 23.0 °F 33.1 °F 100% 29.80 in 0.8 mi SSW 15.0 mph 26.5 mph 0.00 in   Overcast
10:56 PM 33.1 °F 23.4 °F 33.1 °F 100% 29.86 in 0.2 mi South 13.8 mph 21.9 mph 0.00 in Fog Fog
11:56 PM 34.0 °F 23.4 °F 34.0 °F 100% 29.83 in 0.2 mi South 17.3 mph 21.9 mph 0.00 in Fog Fog